Current weather by "City, St" or "zip code"  
 

Current Conditions: Belleville, Scott AFB/MidAmerica Airport, IL

Fog/Mist


36.0 F

Last Updated on Oct 31 2020, 2:56 am CDT
Humidity: 100%
Wind Speed: N 0.0 mph
Barometer 30.29 in
Dewpoint: 35.6 F
Visibility: 5.00 mi
Precip: --
Heat Index: NA
Wind Chill: NA
Current conditions at:

Belleville, Scott AFB/MidAmerica Airport, IL (KBLV)

Lat: 38.55 Lon: 89.85

Local Radar Image active severe weather and emergency alerts image image weather storm and storm spotter reports image weather observation monitoring service image
Local
Radar
Active
Alerts
Storm Reports Obs
Monitoring

Sign-up For Email & Text Message Weather Alert Notification Services



Advertise Here

Observation History for Belleville, Scott AFB/MidAmerica Airport, IL


Time Wind
(mph)
Vis
(mi)
Weather Precip (in) Temperature (F) Relative
Humidity
Wind
Chill
(F)
Heat
Index
(F)
Pressure
Air Dwpt altimeter
(in)
sea level
(mb)
Rmks
2:56 am CDT N 0.0 5.00 Fog/Mist -- 36.0 35.6 100% NA NA 30.29 1026.3
1:56 am CDT N 0.0 6.00 Fog/Mist -- 36.0 35.6 100% NA NA 30.29 1026.3
12:56 am CDT N 0.0 4.00 Fog/Mist -- 37.0 36.9 100% NA NA 30.29 1026.3
11:56 pm CDT N 0.0 5.00 Fog/Mist -- 38.0 37.9 100% NA NA 30.29 1026.3
10:56 pm CDT SE 3.5 10.00 Fair -- 39.0 38.8 99% NA NA 30.29 1026.3
9:56 pm CDT N 0.0 10.00 Fair -- 41.0 38.8 93% NA NA 30.29 1026.3
8:56 pm CDT N 0.0 10.00 Fair -- 40.0 39.2 97% NA NA 30.28 1026.0
7:56 pm CDT N 0.0 10.00 Fair -- 44.0 38.7 80% NA NA 30.28 1026.0
6:56 pm CDT SE 3.5 10.00 Fair -- 47.0 39.0 75% NA NA 30.26 1025.3
5:56 pm CDT SE 3.5 10.00 Fair -- 50.0 36.7 61% NA NA 30.26 1025.3
4:56 pm CDT SE 5.8 10.00 Fair -- 54.0 36.3 52% 53 NA 30.26 1025.2
3:56 pm CDT N 0.0 10.00 Fair -- 54.0 36.0 50% NA NA 30.26 1025.2
2:56 pm CDT SE 4.6 10.00 Fair -- 54.0 36.3 51% 53 NA 30.27 1025.6
1:56 pm CDT N 4.6 10.00 Fair -- 53.0 35.6 51% 52 NA 30.29 1026.3
12:56 pm CDT S 4.6 10.00 Fair -- 51.0 35.8 55% 50 NA 30.31 1026.9
11:56 am CDT SW 3.5 10.00 Fair -- 50.0 36.9 61% NA NA 30.32 1027.3
10:56 am CDT N 0.0 10.00 Fair -- 46.0 38.7 75% NA NA 30.32 1027.3
9:56 am CDT N 0.0 10.00 Fair -- 42.0 37.0 81% NA NA 30.32 1027.3
8:56 am CDT N 0.0 10.00 Fair -- 38.0 36.7 93% NA NA 30.29 1026.3
7:56 am CDT N 0.0 10.00 Fair -- 33.0 32.5 99% NA NA 30.27 1025.7
6:56 am CDT N 0.0 10.00 Fair -- 34.0 33.4 99% NA NA 30.25 1025.0
5:56 am CDT NW 5.8 10.00 Fair -- 36.0 34.5 96% 31 NA 30.22 1024.0
4:56 am CDT NW 3.5 10.00 Fair -- 35.0 34.3 96% NA NA 30.20 1023.3

Regional Weather Observation


St. Louis Downtown Airport, IL (KCPS)

Fair
40.0 F

St. Louis Lambert International Airport, MO (KSTL)

Fair
40.0 F

St. Charles, St. Charles County Smartt Airport, MO (KSET)

Fair
37.0 F

Belleville, Scott AFB/MidAmerica Airport, IL (KBLV)

Fog/Mist
36.0 F

St. Louis, Spirit Of St. Louis Airport, MO (KSUS)

Fair
37.0 F

Sparta Community-Hunter Field Airport, IL (KSAR)

Fair
39.0 F